{"data":{"norad_id":55754,"epoch":"2026-09-20T22:00:03.000096Z","epoch_age_seconds":67016,"freshness":"FRESH","line1":"1 55754U 23028P   26263.91670139  .00079544  00000+0  59858-2 0  9991","line2":"2 55754  70.0007 112.1201 0003966 293.0964 145.9177 15.02067955  5578","mean_motion":15.02067955,"eccentricity":0.0003966,"inclination_deg":70.0007,"raan_deg":112.1201,"arg_perigee_deg":293.0964,"mean_anomaly_deg":145.9177,"bstar":0.0059858,"rev_number":557,"period_min":95.867833090148,"perigee_km":557.76868001308,"apogee_km":563.27242318301,"semimajor_km":6938.657551598,"source":"CELESTRAK","updated_at":"2026-09-21T09:00:33.313824Z"}}